z/d,0,0,50,50,100,100,200,200,300,300,400,400,500,500,750,750,1000,1000,2000,2000,3000,3000,4000,4000,4700,4700
2016.10.16-01:00,.90,42.11,1.02,60.41,.76,65.07,.66,66.30,.69,67.57,.71,69.88,.63,74.74,.49,70.06,.33,62.58,.15,74.53,.10,23.75,.18,31.59,.01,90.00
2016.10.16-02:00,.89,47.04,1.04,63.95,.75,63.40,.65,61.96,.67,64.90,.68,69.10,.57,73.98,.45,73.30,.31,66.20,.12,80.35,.08,4.99,.14,21.55,.00,90.00
2016.10.16-03:00,.84,50.94,1.03,67.42,.74,61.48,.65,57.89,.67,62.62,.66,68.30,.53,72.22,.42,76.57,.29,71.38,.09,89.76,.07,346.11,.12,10.47,.01,270.00
2016.10.16-04:00,.77,53.01,.98,70.24,.72,59.35,.68,55.33,.68,61.74,.66,68.24,.52,70.10,.39,78.82,.28,76.94,.08,101.55,.07,338.08,.11,4.20,.01,270.00
2016.10.16-05:00,.68,52.33,.90,72.05,.71,57.26,.71,54.74,.71,62.51,.67,69.28,.53,68.58,.37,79.41,.27,81.66,.07,110.82,.07,344.55,.11,7.06,.01,270.00
2016.10.16-06:00,.59,49.41,.81,72.73,.71,55.97,.75,56.09,.74,64.72,.70,71.38,.56,68.29,.37,78.63,.27,84.46,.08,113.04,.08,2.47,.12,16.62,.01,270.00
2016.10.16-07:00,.55,44.30,.73,71.93,.73,55.80,.80,58.69,.77,67.60,.72,73.87,.60,68.83,.38,77.04,.27,84.53,.08,107.45,.10,22.01,.15,27.04,.00,90.00
2016.10.16-08:00,.54,37.20,.68,69.70,.75,56.65,.84,61.85,.79,70.55,.73,76.14,.64,69.72,.40,75.42,.28,82.28,.09,97.56,.13,35.60,.18,34.96,.01,90.00
2016.10.16-09:00,.53,29.68,.67,66.72,.79,58.38,.87,65.22,.80,73.24,.74,77.78,.66,70.72,.42,74.27,.29,78.54,.09,85.32,.16,43.23,.22,39.38,.02,90.00
2016.10.16-10:00,.56,23.22,.68,63.69,.83,60.45,.89,68.33,.81,75.35,.73,78.53,.67,71.73,.43,73.79,.30,74.65,.10,72.30,.17,46.86,.24,40.61,.03,90.00
2016.10.16-11:00,.63,22.51,.72,61.14,.87,62.45,.89,70.81,.79,76.58,.70,78.36,.67,72.72,.44,73.74,.30,71.66,.10,60.55,.17,48.27,.24,39.47,.03,90.00
2016.10.16-12:00,.71,22.27,.78,59.29,.89,64.20,.87,72.36,.75,76.61,.65,77.10,.64,73.38,.42,73.58,.30,69.82,.09,50.05,.14,47.91,.22,36.51,.03,90.00
2016.10.16-13:00,.80,24.93,.84,58.34,.90,65.81,.84,72.90,.70,75.34,.60,74.81,.59,73.61,.38,73.23,.29,69.75,.09,39.87,.11,44.44,.19,31.46,.02,90.00
2016.10.16-14:00,.87,28.65,.90,57.84,.90,67.06,.80,72.42,.66,72.88,.56,71.73,.54,73.31,.34,72.75,.26,72.35,.08,30.99,.07,34.01,.16,24.29,.01,90.00
2016.10.16-15:00,.91,31.28,.94,57.63,.88,67.73,.76,71.17,.63,69.79,.53,68.48,.50,72.32,.30,71.31,.24,77.21,.07,26.02,.04,3.43,.13,15.52,.00,90.00
2016.10.16-16:00,.91,31.83,.95,58.25,.84,68.11,.74,69.98,.62,67.36,.54,66.25,.49,70.89,.28,68.03,.22,82.74,.07,28.97,.03,323.81,.11,8.55,.00,270.00
2016.10.16-17:00,.89,33.81,.95,59.53,.80,68.49,.73,69.48,.64,66.50,.56,65.70,.50,69.53,.28,63.43,.21,86.42,.08,40.71,.04,319.58,.11,8.45,.00,270.00
2016.10.16-18:00,.88,36.03,.93,60.66,.77,68.45,.74,69.33,.67,66.69,.60,66.18,.53,68.46,.31,59.79,.21,86.24,.09,55.50,.04,344.18,.11,16.43,.00,90.00
2016.10.16-19:00,.86,37.59,.90,61.64,.74,67.84,.75,69.21,.71,67.20,.65,66.87,.58,67.79,.37,58.00,.22,81.86,.12,65.34,.06,15.89,.14,27.39,.01,90.00
2016.10.16-20:00,.87,38.82,.88,62.78,.73,66.94,.76,69.09,.74,67.64,.69,67.30,.63,67.57,.43,57.66,.24,75.30,.15,70.14,.10,33.18,.18,36.44,.02,90.00
2016.10.16-21:00,.89,40.56,.88,64.56,.75,66.49,.78,69.40,.77,68.30,.72,67.74,.67,68.09,.49,58.53,.26,68.70,.18,71.81,.14,40.30,.22,41.80,.03,90.00
2016.10.16-22:00,.93,42.33,.91,67.01,.79,66.85,.81,70.36,.80,69.43,.75,68.52,.70,69.44,.53,60.39,.29,63.45,.19,71.54,.17,41.72,.25,43.38,.04,90.00
2016.10.16-23:00,1.01,45.72,.94,69.13,.82,67.21,.82,71.15,.81,70.40,.75,69.18,.71,71.05,.56,62.85,.32,60.34,.19,71.29,.18,40.33,.26,42.35,.03,90.00
2016.10.16-24:00,1.09,52.84,.97,70.71,.84,67.03,.82,70.94,.80,70.57,.74,69.20,.68,72.27,.56,65.67,.33,59.21,.18,71.79,.17,37.02,.24,39.29,.03,90.00
2016.10.17-01:00,1.14,57.81,.99,72.36,.84,66.36,.79,69.45,.78,69.84,.71,68.53,.64,72.93,.54,69.06,.34,59.89,.15,72.88,.15,30.49,.22,33.61,.02,90.00
2016.10.17-02:00,1.18,60.74,1.01,74.43,.84,65.34,.77,67.00,.74,68.65,.67,67.70,.58,73.30,.50,73.56,.33,62.78,.12,75.42,.12,19.74,.18,25.52,.00,90.00
2016.10.17-03:00,1.16,62.88,.99,76.50,.83,63.92,.75,64.14,.72,67.47,.65,67.07,.54,73.17,.46,78.68,.31,67.64,.08,79.89,.09,4.20,.15,15.66,.01,270.00
2016.10.17-04:00,1.14,60.43,.92,78.26,.82,62.55,.76,61.97,.71,67.05,.65,67.23,.52,72.54,.41,83.42,.29,73.93,.06,87.00,.08,348.09,.13,6.38,.02,270.00
2016.10.17-05:00,1.17,56.44,.83,79.21,.81,61.73,.77,61.06,.71,67.60,.66,68.22,.51,71.47,.38,86.48,.27,80.50,.04,97.97,.08,341.51,.12,3.44,.02,270.00
2016.10.17-06:00,1.26,56.23,.75,78.93,.82,61.98,.80,61.65,.73,69.05,.68,70.01,.53,70.56,.35,86.94,.25,85.55,.04,103.91,.07,349.18,.12,9.41,.01,270.00
2016.10.17-07:00,1.36,62.57,.68,77.60,.83,63.51,.83,63.64,.74,71.16,.70,72.43,.57,70.51,.34,85.06,.25,87.58,.05,97.90,.08,8.47,.13,21.11,.00,270.00
2016.10.17-08:00,1.37,71.66,.63,74.88,.84,65.35,.86,65.93,.75,72.72,.72,74.37,.60,70.71,.33,81.19,.24,85.53,.07,87.06,.11,27.62,.16,32.56,.01,90.00
2016.10.17-09:00,1.32,82.23,.60,71.58,.85,67.52,.88,68.46,.75,73.62,.73,75.68,.62,71.22,.34,76.52,.25,80.19,.08,77.19,.14,39.50,.20,40.15,.02,90.00
2016.10.17-10:00,1.33,94.69,.61,68.75,.86,69.90,.90,71.05,.76,74.00,.73,76.37,.64,71.96,.35,72.17,.26,73.68,.10,68.86,.16,45.43,.22,43.49,.03,90.00
2016.10.17-11:00,1.29,104.74,.64,66.24,.87,71.71,.91,73.01,.77,73.60,.72,76.18,.64,72.41,.37,68.27,.27,68.12,.11,62.27,.17,48.10,.23,43.65,.03,90.00
2016.10.17-12:00,1.24,112.29,.68,64.15,.87,72.74,.91,74.17,.76,72.61,.69,75.38,.63,72.52,.38,65.13,.29,64.80,.10,56.67,.15,48.34,.22,40.97,.03,90.00
2016.10.17-13:00,1.17,119.63,.73,62.44,.87,72.98,.88,74.54,.73,71.36,.66,74.39,.60,72.61,.39,63.33,.29,64.31,.09,50.47,.12,44.94,.19,34.82,.02,90.00
2016.10.17-14:00,1.04,127.16,.78,60.75,.85,72.27,.84,73.95,.71,69.77,.62,73.14,.56,72.55,.37,62.92,.28,66.81,.08,43.22,.08,34.90,.15,24.69,.00,90.00
2016.10.17-15:00,.85,135.96,.82,59.45,.84,71.13,.81,72.67,.69,68.09,.59,71.61,.53,72.02,.35,63.32,.27,71.82,.06,35.70,.05,7.65,.13,10.38,.01,270.00
2016.10.17-16:00,.62,148.06,.85,58.95,.82,70.21,.78,71.18,.69,66.68,.59,69.95,.51,70.75,.33,63.72,.25,78.42,.05,33.07,.05,324.54,.11,355.21,.02,270.00
2016.10.17-17:00,.35,163.51,.85,59.15,.80,69.57,.77,69.88,.70,65.83,.60,68.51,.52,69.00,.32,63.42,.23,84.66,.05,42.66,.05,307.66,.11,348.04,.02,270.00
2016.10.17-18:00,.08,104.36,.85,60.08,.78,69.26,.78,69.28,.73,65.95,.63,68.00,.54,67.78,.33,62.56,.22,88.11,.06,57.51,.05,315.17,.11,353.66,.02,270.00
2016.10.17-19:00,.19,22.36,.86,61.81,.78,69.36,.80,69.57,.77,66.96,.68,68.55,.59,67.73,.36,61.98,.21,87.28,.08,66.60,.06,346.19,.12,10.15,.01,270.00
2016.10.17-20:00,.35,16.15,.87,64.21,.79,69.83,.82,70.48,.81,68.31,.72,69.47,.63,68.34,.39,61.66,.21,81.91,.10,69.77,.08,18.35,.16,26.69,.01,90.00
2016.10.17-21:00,.50,20.69,.89,67.01,.81,70.45,.85,71.57,.84,69.58,.75,70.22,.67,69.09,.44,61.31,.22,72.97,.13,70.34,.13,33.56,.21,36.85,.02,90.00
2016.10.17-22:00,.66,27.95,.92,70.15,.84,71.39,.88,72.97,.88,71.09,.78,71.22,.71,70.36,.49,61.44,.25,64.31,.16,69.51,.16,39.27,.25,41.55,.03,90.00
2016.10.17-23:00,.81,35.05,.95,72.93,.86,72.22,.89,74.30,.89,72.65,.79,72.41,.72,72.08,.53,62.20,.29,58.61,.17,68.18,.19,40.99,.27,43.02,.03,90.00
2016.10.17-24:00,.95,42.80,.97,75.24,.87,72.64,.89,75.10,.88,73.91,.78,73.51,.71,73.92,.56,63.72,.33,56.33,.17,66.69,.19,40.09,.27,42.04,.03,90.00
2016.10.18-01:00,1.06,49.69,.97,77.34,.87,72.31,.86,74.63,.86,74.30,.75,73.93,.68,75.24,.56,65.93,.35,56.77,.16,65.38,.18,36.94,.25,38.94,.02,90.00
2016.10.18-02:00,1.15,57.08,.97,79.86,.86,71.48,.82,72.74,.82,73.78,.71,73.56,.63,75.65,.54,68.92,.36,59.35,.13,64.38,.15,30.92,.21,33.63,.01,90.00
2016.10.18-03:00,1.19,64.38,.94,82.35,.84,70.09,.79,69.69,.78,72.53,.68,72.55,.58,75.01,.50,72.93,.35,64.13,.10,63.86,.11,20.44,.17,25.57,.00,270.00
2016.10.18-04:00,1.17,70.59,.87,83.71,.82,67.89,.77,66.15,.76,70.94,.65,71.21,.54,73.33,.46,77.85,.33,71.15,.07,65.24,.09,4.98,.14,15.16,.01,270.00
2016.10.18-05:00,1.09,75.84,.76,83.36,.80,65.70,.77,63.43,.74,69.85,.64,70.23,.52,71.26,.42,82.73,.31,79.14,.05,70.63,.08,352.36,.12,7.57,.02,270.00
2016.10.18-06:00,1.01,80.68,.68,80.91,.80,64.89,.78,62.47,.74,69.67,.64,69.86,.52,69.35,.38,85.98,.28,86.05,.04,80.07,.07,352.15,.11,8.65,.02,270.00
2016.10.18-07:00,.93,85.50,.64,77.35,.83,66.22,.82,63.44,.76,70.40,.66,70.13,.55,68.21,.35,86.21,.25,89.82,.04,86.23,.07,5.30,.11,17.75,.01,270.00
2016.10.18-08:00,.85,90.65,.62,74.27,.87,69.38,.86,65.91,.78,71.88,.69,71.06,.59,68.35,.34,83.60,.24,89.40,.06,83.61,.09,23.15,.13,28.41,.00,270.00
2016.10.18-09:00,.74,95.34,.60,70.80,.88,72.69,.89,68.38,.80,72.89,.71,71.52,.63,68.74,.34,78.36,.23,84.47,.08,78.82,.11,37.00,.15,36.68,.01,90.00
2016.10.18-10:00,.63,98.87,.60,67.40,.87,75.79,.92,70.71,.82,73.57,.74,71.61,.67,69.58,.36,72.96,.24,77.48,.10,74.47,.14,44.58,.18,40.75,.02,90.00
2016.10.18-11:00,.54,100.16,.62,64.93,.86,78.42,.94,72.84,.83,74.10,.76,71.64,.70,70.96,.39,69.35,.26,71.85,.11,70.99,.15,47.55,.20,40.77,.02,90.00
2016.10.18-12:00,.48,97.69,.67,63.52,.84,80.07,.95,74.49,.83,74.19,.76,71.39,.71,72.35,.41,67.20,.27,68.47,.11,68.76,.15,47.60,.20,37.63,.02,90.00
2016.10.18-13:00,.45,91.78,.74,63.54,.82,80.73,.95,75.66,.82,73.93,.76,71.06,.70,73.72,.41,66.17,.27,67.17,.10,67.45,.14,44.55,.19,31.14,.01,90.00
2016.10.18-14:00,.45,84.09,.81,64.38,.80,80.21,.93,76.22,.80,73.29,.74,70.88,.67,75.16,.40,66.29,.27,67.70,.08,66.26,.11,37.02,.17,21.27,.00,90.00
2016.10.18-15:00,.45,74.88,.88,65.39,.78,78.57,.89,76.12,.78,72.33,.72,70.89,.63,76.55,.38,67.43,.26,69.81,.05,63.98,.08,22.09,.15,9.64,.01,270.00
2016.10.18-16:00,.46,64.03,.91,66.30,.75,76.13,.86,75.40,.76,71.06,.71,70.92,.59,77.24,.36,68.89,.25,73.10,.03,58.48,.05,355.53,.14,358.96,.02,270.00
2016.10.18-17:00,.48,54.09,.92,67.66,.73,73.75,.84,74.62,.75,70.01,.71,71.17,.57,76.94,.34,70.01,.23,76.86,.01,41.12,.05,327.00,.13,352.51,.02,270.00
2016.10.18-18:00,.51,48.34,.91,70.16,.73,72.32,.83,74.53,.77,69.82,.73,71.94,.57,76.06,.33,70.37,.22,79.89,.01,26.07,.05,318.66,.12,354.35,.02,270.00
2016.10.18-19:00,.55,45.57,.89,73.10,.74,71.69,.84,74.89,.80,70.01,.75,72.67,.58,74.69,.33,69.42,.21,80.54,.02,45.97,.05,337.21,.13,6.93,.01,270.00
2016.10.18-20:00,.61,44.42,.87,75.97,.76,72.04,.85,75.69,.83,70.60,.79,73.58,.61,73.81,.35,67.89,.21,78.31,.05,54.00,.06,10.97,.15,23.64,.00,90.00
2016.10.18-21:00,.69,45.74,.86,78.75,.80,73.54,.87,76.77,.87,71.46,.82,74.63,.65,73.67,.38,66.06,.22,72.96,.09,55.09,.10,30.21,.19,35.90,.01,90.00
2016.10.18-22:00,.77,49.01,.85,81.28,.83,75.58,.89,77.60,.90,72.19,.85,75.44,.69,73.80,.43,64.00,.25,66.31,.13,55.07,.14,38.54,.23,43.09,.03,90.00
2016.10.18-23:00,.84,54.26,.84,83.52,.84,77.76,.90,78.22,.93,73.23,.87,76.39,.72,74.40,.48,62.51,.30,61.35,.16,55.14,.18,41.48,.26,46.07,.03,90.00
2016.10.18-24:00,.90,60.27,.82,84.98,.84,79.14,.90,78.43,.95,74.59,.87,77.48,.73,75.19,.52,61.61,.34,58.80,.18,55.91,.19,41.71,.26,46.02,.03,90.00
2016.10.19-01:00,.94,66.96,.81,85.57,.82,79.14,.89,77.93,.95,76.02,.85,78.58,.71,75.88,.55,61.73,.38,58.77,.18,57.18,.19,39.50,.25,43.22,.03,90.00
2016.10.19-02:00,.95,74.54,.81,85.60,.80,77.70,.86,76.26,.93,76.94,.81,79.35,.66,76.10,.55,63.34,.39,61.15,.17,58.84,.18,34.86,.23,37.87,.02,90.00
2016.10.19-03:00,.97,82.75,.81,85.52,.79,75.55,.83,73.30,.89,76.98,.76,79.46,.61,75.45,.54,66.52,.39,65.54,.15,60.91,.15,27.91,.19,30.30,.00,90.00
2016.10.19-04:00,1.01,89.35,.78,85.15,.78,73.39,.81,69.42,.84,76.02,.71,78.52,.56,73.43,.51,70.99,.37,71.82,.11,64.04,.12,18.88,.16,20.79,.01,270.00
2016.10.19-05:00,.92,96.24,.70,83.71,.75,71.42,.81,65.86,.81,74.56,.67,76.64,.54,70.26,.48,76.08,.35,79.54,.09,69.38,.10,8.75,.13,9.99,.02,270.00
2016.10.19-06:00,.83,101.65,.64,81.24,.75,70.86,.84,64.79,.80,74.06,.67,75.12,.54,67.71,.45,81.02,.32,87.72,.06,77.21,.09,1.88,.12,1.76,.02,270.00
2016.10.19-07:00,.73,107.95,.62,78.80,.77,72.25,.88,66.14,.81,74.51,.68,73.92,.57,65.78,.41,83.94,.28,94.53,.06,87.19,.08,5.84,.12,2.62,.02,270.00
2016.10.19-08:00,.61,116.98,.62,77.84,.79,75.43,.91,68.99,.82,75.48,.69,72.89,.61,64.62,.38,83.60,.24,97.90,.06,94.30,.09,20.48,.12,12.32,.01,270.00
2016.10.19-09:00,.50,124.02,.62,77.90,.80,79.55,.94,72.68,.83,76.70,.72,72.31,.67,64.97,.37,80.59,.21,95.44,.07,94.12,.10,34.25,.14,22.48,.01,270.00
2016.10.19-10:00,.36,130.16,.61,77.82,.79,83.43,.96,76.30,.84,77.54,.75,71.84,.73,66.23,.38,75.99,.19,85.67,.08,88.87,.13,43.51,.17,29.83,.00,90.00
2016.10.19-11:00,.21,130.46,.61,77.32,.78,86.32,.97,79.46,.84,77.92,.78,71.64,.77,68.23,.40,71.83,.20,73.02,.09,82.78,.15,48.47,.19,33.29,.01,90.00
2016.10.19-12:00,.09,86.16,.62,76.17,.76,87.60,.96,81.81,.84,77.98,.80,72.02,.80,70.89,.43,69.59,.23,64.21,.09,77.40,.15,49.75,.20,32.89,.01,90.00
2016.10.19-13:00,.18,20.96,.64,75.24,.73,87.27,.96,83.23,.85,77.87,.81,72.97,.81,73.90,.45,69.34,.25,60.36,.08,72.14,.14,47.55,.20,29.13,.01,90.00
2016.10.19-14:00,.34,17.63,.68,75.56,.72,85.88,.93,83.62,.84,77.57,.81,74.07,.79,76.76,.45,70.48,.27,59.61,.06,64.38,.12,41.31,.20,22.97,.01,90.00
2016.10.19-15:00,.50,22.49,.72,76.57,.70,83.74,.89,82.83,.82,76.80,.78,74.85,.75,79.12,.44,72.72,.28,60.56,.04,49.08,.09,29.75,.18,16.03,.00,270.00
2016.10.19-16:00,.66,27.77,.75,77.22,.68,80.99,.84,80.84,.78,75.24,.75,74.92,.69,80.76,.40,75.95,.28,62.88,.03,16.23,.06,9.75,.16,9.37,.01,270.00
2016.10.19-17:00,.79,32.94,.75,77.55,.67,78.40,.80,78.10,.76,73.05,.72,74.18,.64,81.34,.37,79.51,.28,66.63,.03,338.14,.05,339.00,.14,2.65,.01,270.00
2016.10.19-18:00,.85,40.82,.72,78.38,.66,77.07,.78,75.87,.77,71.35,.72,73.40,.63,81.10,.35,82.40,.28,71.36,.03,328.53,.06,317.70,.13,358.04,.02,270.00
2016.10.19-19:00,.91,46.77,.70,79.59,.66,77.15,.79,74.85,.80,70.45,.75,72.92,.62,80.21,.32,83.06,.27,75.28,.03,345.45,.06,322.12,.12,3.40,.01,270.00
2016.10.19-20:00,.98,51.64,.69,81.14,.68,78.57,.82,75.01,.84,70.25,.77,72.76,.63,78.88,.30,79.21,.25,76.32,.05,13.57,.06,349.60,.13,19.32,.00,270.00
2016.10.19-21:00,1.05,59.78,.69,83.09,.71,81.23,.85,76.43,.89,71.18,.81,73.50,.67,78.40,.30,72.55,.25,75.03,.08,32.72,.09,17.64,.15,33.65,.01,90.00
2016.10.19-22:00,1.09,66.75,.69,84.79,.73,84.01,.88,78.18,.94,72.58,.85,74.39,.71,78.28,.35,66.31,.27,72.43,.11,43.84,.12,31.33,.19,41.24,.02,90.00
2016.10.19-23:00,1.12,73.84,.68,86.51,.73,86.42,.90,79.73,.98,74.07,.88,74.90,.74,77.60,.41,61.43,.30,69.03,.15,50.73,.16,37.90,.22,44.61,.02,90.00
2016.10.19-24:00,1.13,80.87,.66,88.36,.71,87.92,.91,80.80,1.01,75.74,.89,75.35,.75,76.54,.48,58.50,.34,66.13,.18,55.39,.19,41.22,.24,45.43,.02,90.00
2016.10.20-01:00,1.13,87.84,.64,89.26,.68,87.30,.90,80.84,1.03,77.43,.90,75.97,.75,75.56,.54,57.82,.37,64.65,.19,58.78,.20,42.13,.24,44.04,.02,90.00
2016.10.20-02:00,1.13,94.68,.63,89.27,.66,84.83,.91,80.18,1.03,79.35,.90,77.30,.73,75.50,.57,60.13,.39,65.48,.19,61.02,.20,39.92,.23,39.39,.02,90.00
2016.10.20-03:00,1.09,101.13,.62,88.42,.66,80.98,.89,78.38,1.01,80.66,.87,78.27,.70,75.55,.58,64.32,.39,68.12,.17,63.29,.18,35.93,.21,32.33,.01,90.00
2016.10.20-04:00,1.04,107.23,.62,88.14,.66,77.73,.88,75.80,.96,80.97,.82,78.07,.65,74.57,.56,69.25,.38,71.79,.15,66.52,.15,30.74,.19,23.31,.01,270.00
2016.10.20-05:00,.93,113.88,.59,88.53,.66,75.38,.85,72.74,.90,79.99,.76,76.13,.60,71.76,.54,74.30,.37,76.52,.12,72.60,.13,24.12,.16,12.07,.02,270.00
2016.10.20-06:00,.79,120.60,.53,88.02,.64,73.50,.84,70.22,.86,78.58,.74,73.82,.60,69.02,.51,79.61,.35,82.67,.10,82.41,.10,15.72,.15,.19,.02,270.00
2016.10.20-07:00,.66,127.01,.49,86.09,.65,73.11,.85,69.45,.84,77.82,.75,72.57,.61,67.64,.47,83.94,.31,88.85,.08,94.14,.09,12.37,.15,356.09,.03,270.00
2016.10.20-08:00,.55,135.18,.48,84.28,.67,74.53,.87,70.31,.84,77.54,.77,72.04,.65,66.85,.41,84.80,.25,92.27,.07,104.18,.09,19.75,.15,2.42,.02,270.00
2016.10.20-09:00,.45,145.06,.47,83.86,.69,77.98,.90,72.89,.85,77.92,.81,72.42,.70,67.27,.38,82.27,.20,90.69,.06,107.30,.10,31.66,.16,14.06,.01,270.00
2016.10.20-10:00,.36,158.94,.46,83.02,.71,81.69,.93,76.02,.86,78.16,.85,73.02,.75,68.28,.37,77.52,.18,82.95,.06,101.15,.12,40.84,.18,24.51,.00,90.00
2016.10.20-11:00,.28,181.71,.45,80.77,.70,84.77,.94,79.09,.88,78.13,.88,73.66,.80,69.40,.38,71.93,.18,71.16,.06,87.27,.13,46.66,.20,31.65,.02,90.00
2016.10.20-12:00,.24,211.63,.42,76.37,.69,86.71,.95,81.86,.89,78.43,.91,75.05,.83,71.21,.42,67.82,.21,61.71,.06,71.05,.14,49.33,.21,35.17,.02,90.00
2016.10.20-13:00,.22,249.30,.41,68.82,.65,86.58,.94,83.61,.90,78.91,.93,77.13,.85,73.69,.46,66.59,.26,57.91,.06,56.59,.14,48.98,.21,35.15,.02,90.00
2016.10.20-14:00,.19,288.99,.45,65.33,.64,85.81,.93,84.59,.91,79.79,.94,79.88,.86,76.82,.49,68.14,.30,58.54,.06,40.60,.13,43.68,.21,30.79,.02,90.00
2016.10.20-15:00,.19,341.87,.52,66.33,.65,84.35,.90,84.02,.89,79.92,.91,82.20,.83,79.55,.51,70.97,.33,60.90,.06,26.23,.11,34.16,.19,24.20,.01,90.00
2016.10.20-16:00,.28,24.49,.62,69.81,.67,82.65,.86,81.65,.85,78.71,.85,83.58,.77,81.52,.48,74.38,.34,63.58,.06,14.79,.09,20.27,.17,16.90,.00,90.00
2016.10.20-17:00,.39,44.39,.67,73.18,.67,81.09,.83,78.06,.83,76.35,.80,83.90,.70,82.62,.45,78.20,.34,66.69,.05,7.65,.07,1.44,.15,9.32,.01,270.00
2016.10.20-18:00,.40,54.81,.65,75.35,.63,79.12,.81,74.46,.82,73.97,.77,83.73,.67,83.16,.42,82.30,.34,71.00,.05,6.50,.07,342.22,.14,2.07,.02,270.00
2016.10.20-19:00,.41,64.46,.65,76.60,.62,77.15,.82,72.13,.84,72.52,.76,83.43,.65,83.15,.37,85.66,.32,75.63,.05,12.80,.07,339.51,.13,2.37,.02,270.00
2016.10.20-20:00,.45,74.61,.66,78.46,.64,76.61,.85,71.78,.88,71.95,.76,82.27,.63,81.41,.32,84.91,.28,78.45,.07,24.10,.07,354.47,.13,12.68,.01,270.00
2016.10.20-21:00,.49,83.26,.68,81.82,.66,77.61,.89,73.60,.92,72.33,.76,80.27,.64,78.15,.28,77.57,.25,78.25,.09,34.99,.08,16.41,.15,26.63,.00,270.00
2016.10.20-22:00,.54,89.48,.69,86.33,.69,79.40,.93,76.98,.97,73.39,.78,78.17,.68,74.95,.30,68.42,.25,76.40,.12,43.08,.11,30.78,.17,35.95,.01,90.00
2016.10.20-23:00,.56,94.22,.68,90.73,.72,81.07,.96,80.49,1.01,74.35,.82,76.17,.73,72.47,.37,62.46,.27,73.59,.15,49.38,.14,38.14,.20,40.35,.01,90.00
2016.10.20-24:00,.55,96.76,.65,93.58,.73,81.85,.96,83.11,1.04,75.15,.84,74.55,.79,70.80,.45,58.75,.29,69.30,.17,54.64,.17,42.60,.22,42.48,.02,90.00
2016.10.21-01:00,.51,96.02,.60,92.96,.72,80.69,.94,84.25,1.06,76.25,.86,73.80,.82,70.18,.52,57.02,.33,65.18,.19,59.52,.19,44.74,.23,42.44,.02,90.00
2016.10.21-02:00,.50,91.93,.57,89.03,.73,78.20,.93,84.14,1.08,78.28,.87,74.56,.84,71.09,.58,58.15,.36,63.59,.20,63.72,.20,43.15,.23,38.46,.02,90.00
2016.10.21-03:00,.51,87.31,.57,84.05,.73,74.74,.90,82.61,1.07,80.41,.86,75.50,.83,72.58,.62,61.39,.39,64.70,.19,67.99,.19,38.92,.22,31.24,.01,90.00
2016.10.21-04:00,.54,85.74,.60,80.88,.76,71.66,.86,79.18,1.02,81.32,.82,74.88,.79,73.36,.63,65.66,.41,67.40,.18,72.71,.18,33.87,.21,23.05,.00,270.00
2016.10.21-05:00,.54,88.72,.60,79.93,.78,70.77,.83,74.22,.96,80.39,.77,72.04,.75,72.98,.61,70.77,.41,71.27,.15,78.00,.16,27.90,.20,14.42,.01,270.00
2016.10.21-06:00,.49,92.42,.57,78.13,.78,71.08,.83,69.00,.91,78.28,.76,68.46,.73,72.62,.59,76.97,.41,76.69,.12,84.57,.14,21.10,.19,6.35,.02,270.00
2016.10.21-07:00,.48,91.27,.58,75.39,.81,72.10,.86,65.32,.89,76.12,.76,65.92,.70,72.88,.53,83.22,.36,82.57,.09,92.79,.13,18.55,.19,4.33,.02,270.00
2016.10.21-08:00,.48,88.69,.61,74.17,.84,74.57,.91,64.57,.89,74.88,.80,65.04,.70,73.04,.45,86.82,.29,85.97,.07,101.45,.12,22.55,.19,8.75,.01,270.00
2016.10.21-09:00,.45,87.82,.61,74.00,.84,78.06,.95,66.60,.91,75.06,.85,65.92,.72,73.31,.40,85.92,.23,84.11,.05,104.62,.12,30.50,.19,16.36,.00,90.00
2016.10.21-10:00,.39,87.99,.59,73.11,.82,81.10,.99,70.15,.94,75.83,.91,67.52,.76,73.58,.37,81.77,.20,78.08,.03,92.46,.12,38.90,.19,24.19,.01,90.00
2016.10.21-11:00,.31,83.97,.58,70.92,.79,82.63,1.03,74.13,.97,76.44,.97,68.91,.81,73.49,.37,76.51,.19,71.73,.03,62.12,.13,45.28,.20,30.15,.02,90.00
2016.10.21-12:00,.24,74.95,.57,68.68,.75,82.62,1.04,78.15,.99,77.08,1.01,70.22,.84,73.23,.40,71.25,.21,66.08,.05,41.57,.14,49.75,.21,34.16,.02,90.00
2016.10.21-13:00,.24,61.29,.60,67.46,.73,81.28,1.04,81.92,1.00,78.25,1.05,72.23,.86,73.87,.44,67.84,.25,62.21,.06,31.81,.14,51.19,.21,35.06,.02,90.00
2016.10.21-14:00,.31,51.41,.65,66.52,.74,78.82,1.03,84.64,1.01,79.82,1.06,75.04,.87,75.80,.48,67.39,.29,61.55,.08,27.47,.13,48.58,.21,32.16,.02,90.00
2016.10.21-15:00,.42,50.17,.72,66.61,.77,76.32,.98,85.78,.98,81.14,1.03,77.99,.84,78.27,.50,68.64,.33,62.98,.09,28.33,.11,41.83,.20,26.39,.01,90.00
2016.10.21-16:00,.60,55.98,.79,68.41,.81,74.85,.93,84.74,.93,81.20,.97,80.22,.78,80.28,.50,70.27,.35,65.05,.10,32.33,.10,31.07,.19,19.49,.00,90.00
2016.10.21-17:00,.74,63.79,.86,71.62,.86,75.20,.88,81.84,.88,79.68,.91,81.47,.71,81.51,.48,71.87,.36,66.88,.09,36.13,.08,16.44,.17,13.07,.00,270.00
2016.10.21-18:00,.78,68.23,.89,74.98,.89,76.44,.85,77.63,.85,77.10,.85,82.00,.67,82.17,.46,74.03,.36,69.24,.09,38.61,.07,.43,.16,8.24,.01,270.00
2016.10.21-19:00,.82,70.78,.91,77.41,.91,77.89,.85,73.23,.84,74.59,.82,82.32,.63,82.44,.42,76.81,.34,72.95,.08,41.30,.08,352.67,.15,7.71,.01,270.00
2016.10.21-20:00,.86,73.21,.93,79.48,.92,79.75,.88,70.54,.86,73.20,.82,82.44,.62,81.49,.38,77.96,.30,76.41,.08,45.61,.08,355.89,.15,12.15,.01,270.00
2016.10.21-21:00,.89,76.32,.93,81.98,.92,81.93,.93,70.76,.91,73.69,.84,82.36,.64,79.15,.36,75.48,.27,77.07,.08,48.76,.09,5.49,.15,19.80,.00,270.00
2016.10.21-22:00,.90,79.97,.91,84.74,.90,83.89,.99,73.47,.96,75.30,.88,81.91,.69,76.27,.38,71.31,.26,75.46,.09,50.69,.11,17.95,.16,28.38,.00,90.00
2016.10.21-23:00,.89,83.84,.88,87.37,.86,84.84,1.04,77.50,1.01,76.89,.91,80.65,.75,73.34,.42,68.44,.27,74.18,.11,53.43,.13,27.73,.18,34.03,.01,90.00
2016.10.21-24:00,.89,87.89,.86,89.52,.84,84.43,1.06,81.56,1.03,77.78,.93,78.33,.80,70.43,.47,66.55,.29,72.95,.14,57.28,.16,34.61,.20,36.75,.01,90.00
2016.10.22-01:00,.90,91.94,.85,90.94,.84,83.06,1.06,84.71,1.03,78.06,.94,75.76,.85,68.28,.53,65.04,.31,70.38,.16,61.19,.19,39.45,.22,37.41,.01,90.00
2016.10.22-02:00,.91,94.86,.86,91.00,.85,80.93,1.03,86.31,1.02,78.12,.95,74.26,.89,67.92,.58,64.78,.34,67.58,.18,64.69,.21,42.09,.23,35.68,.01,90.00
2016.10.22-03:00,.91,95.90,.87,89.72,.88,78.34,.99,86.14,1.01,78.47,.96,74.70,.90,69.81,.61,66.78,.37,66.94,.19,67.67,.21,41.64,.23,30.46,.01,90.00
2016.10.22-04:00,.88,95.31,.88,87.79,.90,75.54,.95,83.70,.99,78.30,.95,75.88,.90,72.51,.63,70.16,.40,68.65,.18,70.91,.21,39.25,.24,23.34,.00,90.00
2016.10.22-05:00,.83,95.07,.87,86.84,.93,74.08,.91,79.61,.96,77.12,.94,76.80,.87,74.85,.62,73.87,.42,71.28,.17,73.98,.19,35.98,.24,16.61,.00,270.00
2016.10.22-06:00,.79,95.03,.86,86.34,.96,73.95,.90,74.87,.95,75.51,.92,77.51,.83,76.69,.59,77.68,.41,73.78,.15,75.66,.18,33.24,.23,12.75,.00,270.00
2016.10.22-07:00,.75,94.52,.87,85.94,1.00,74.31,.91,70.98,.94,74.14,.89,77.94,.78,77.96,.52,81.75,.37,76.21,.12,75.47,.16,32.87,.23,13.48,.00,90.00
2016.10.22-08:00,.67,93.43,.87,85.69,1.01,75.02,.95,69.11,.95,73.18,.87,77.73,.74,78.18,.46,85.33,.32,78.75,.09,74.62,.15,33.65,.23,16.27,.01,90.00
2016.10.22-09:00,.68,90.95,.86,85.72,1.01,76.76,.98,70.05,.97,73.28,.88,77.43,.74,77.60,.41,86.11,.28,78.85,.07,71.40,.14,35.15,.22,20.00,.01,90.00
2016.10.22-10:00,.66,89.19,.84,85.99,1.00,79.61,1.02,73.37,1.00,74.37,.91,77.47,.76,77.01,.38,83.12,.24,74.15,.05,61.04,.13,38.46,.22,25.11,.02,90.00
2016.10.22-11:00,.59,85.54,.83,86.24,.99,82.87,1.05,77.23,1.03,75.38,.93,77.33,.80,76.31,.37,77.66,.23,67.62,.06,48.89,.13,42.37,.22,30.08,.02,90.00
2016.10.22-12:00,.54,79.61,.82,86.79,.96,85.93,1.06,80.18,1.05,75.81,.96,76.64,.83,75.08,.39,71.54,.24,63.59,.07,44.31,.13,45.26,.22,33.54,.03,90.00
2016.10.22-13:00,.54,74.19,.85,88.78,.95,88.85,1.07,82.26,1.08,76.55,.98,76.41,.86,74.01,.42,65.95,.26,61.46,.08,43.54,.13,45.71,.22,34.60,.03,90.00
2016.10.22-14:00,.58,70.59,.90,91.90,.96,91.02,1.08,83.84,1.12,78.35,1.00,77.55,.87,74.13,.46,62.59,.30,60.78,.09,43.40,.13,42.63,.22,32.55,.02,90.00
2016.10.22-15:00,.65,68.82,.90,94.49,.95,91.62,1.06,84.51,1.12,80.68,.99,79.45,.86,75.33,.50,62.01,.34,62.03,.11,45.48,.12,37.43,.21,28.53,.02,90.00
2016.10.22-16:00,.72,68.98,.87,95.30,.94,90.95,1.02,83.63,1.09,82.57,.95,81.26,.83,77.00,.53,63.83,.37,65.23,.11,48.50,.12,30.06,.20,22.78,.01,90.00
2016.10.22-17:00,.75,70.96,.82,95.28,.91,90.19,.98,81.49,1.05,83.35,.91,82.29,.79,78.26,.55,66.73,.40,68.97,.12,51.35,.12,21.59,.20,16.61,.00,90.00